Clinton, British Columbia

6:11 AM PDT on June 27, 2017 (GMT -0700)
Clinton

Weather History for CWCL - February, 2014

Change the Weather History Date:

Thursday, February 6, 2014

  Actual Average Record
Temperature  
Mean Temperature -6 °F -  
Max Temperature 8 °F 32 °F 44 °F (2015)
Min Temperature -20 °F 16 °F -20 °F (2014)
Degree Days  
Heating Degree Days 71    
Moisture  
Dew Point -22 °F    
Average Humidity 50    
Maximum Humidity 60    
Minimum Humidity 30    
Precipitation  
Precipitation 0.02 in - - ()
Sea Level Pressure  
Sea Level Pressure 30.36 in    
Wind  
Wind Speed 1 mph ()    
Max Wind Speed 4 mph    
Max Gust Speed -    
Visibility 9.0 miles    
Events      
Averages and records for this station are not official NWS values.
T = Trace of Precipitation, MM = Missing Value Source: Averaged Metar Reports

Daily Weather History Graph

Daily Weather History Graph

Search for Another Location

Airport or City:

Trip Planner

Search our weather history database for the weather conditions in past years. The results will help you decide how hot, cold, wet, or windy it might be!

Date:

Astronomy

Feb. 06, 2014 Rise Set
Actual Time 7:34 AM PST 5:06 PM PST
Civil Twilight 6:59 AM PST 5:41 PM PST
Nautical Twilight 6:20 AM PST 6:20 PM PST
Astronomical Twilight 5:41 AM PST 6:59 PM PST
Moon 10:38 AM PST (2/6) 12:56 AM PST (2/6)
Length of Visible Light 10h 41m
Length of Day
9h 31m
Waxing Crescent, 50% of the Moon is Illuminated
Feb 6
Waxing Crescent
Feb 14
Full
Feb 22
Last Quarter
Mar 1
New
Mar 8
First Quarter

Hourly Weather History & Observations

Time (PST) Temp. Windchill Dew Point Humidity Pressure Visibility Wind Dir Wind Speed Gust Speed Precip Events Conditions
12:00 AM -13.0 °F - -25.6 °F 53% 30.64 in 9.0 mi NE 2.3 mph - N/A   Unknown
1:00 AM -15 °F - -26 °F 38% 30.61 in 9 mi Calm Calm - -  
1:00 AM -14.8 °F - -25.6 °F 58% 30.61 in 9.0 mi Calm Calm - N/A   Unknown
2:00 AM -16.6 °F - -27.4 °F 58% 30.60 in 9.0 mi Calm Calm - N/A   Unknown
3:00 AM -16.6 °F - -29.2 °F 53% 30.57 in 9.0 mi Calm Calm - N/A   Unknown
4:00 AM -18 °F - -30 °F 35% 30.56 in 9 mi Calm Calm - -  
4:00 AM -18.4 °F - -29.2 °F 58% 30.56 in 9.0 mi Calm Calm - N/A   Unknown
5:00 AM -18.4 °F - -31.0 °F 53% 30.56 in 9.0 mi SSW 2.3 mph - N/A   Unknown
6:00 AM -20.2 °F - -31.0 °F 58% 30.55 in 9.0 mi Calm Calm - N/A   Unknown
7:00 AM -20 °F - -32 °F 34% 30.53 in 9 mi Calm Calm - -  
7:00 AM -20.2 °F - -32.8 °F 52% 30.53 in 9.0 mi Calm Calm - N/A   Unknown
8:00 AM -20.2 °F - -32.8 °F 52% 30.50 in 9.0 mi Calm Calm - N/A   Unknown
9:00 AM -14.8 °F - -25.6 °F 58% 30.48 in 9.0 mi Calm Calm - N/A   Unknown
10:00 AM -11 °F - -22 °F 40% 30.46 in 9 mi Calm Calm - -  
10:00 AM -11.2 °F - -22.0 °F 59% 30.46 in 9.0 mi ESE 2.3 mph - N/A   Unknown
11:00 AM -4.0 °F -12.4 °F -18.4 °F 50% 30.42 in 9.0 mi ENE 3.5 mph - N/A   Unknown
12:00 PM -0.4 °F -8.3 °F -16.6 °F 46% 30.37 in 9.0 mi ESE 3.5 mph - N/A   Unknown
1:00 PM 2 °F - -14 °F 30% 30.31 in 9 mi ESE 2.3 mph - -  
1:00 PM 3.2 °F - -14.8 °F 43% 30.31 in 9.0 mi ESE 2.3 mph - N/A   Unknown
2:00 PM 6.8 °F - -11.2 °F 44% 30.26 in 9.0 mi Calm Calm - N/A   Unknown
3:00 PM 8.6 °F - -11.2 °F 40% 30.22 in 9.0 mi SE 2.3 mph - N/A   Unknown
4:00 PM 3 °F - -11 °F 36% 30.21 in 9 mi Calm Calm - -  
4:00 PM 3.2 °F - -11.2 °F 51% 30.21 in 9.0 mi Calm Calm - N/A   Unknown
5:00 PM -4.0 °F - -14.8 °F 60% 30.19 in 9.0 mi Calm Calm - N/A   Unknown
6:00 PM -5.8 °F - -16.6 °F 60% 30.17 in 9.0 mi Calm Calm - N/A   Unknown
7:00 PM -8 °F - -19 °F 41% 30.15 in 9 mi Calm Calm - -  
7:00 PM -7.6 °F - -18.4 °F 59% 30.15 in 9.0 mi Calm Calm - N/A   Unknown
8:00 PM -9.4 °F - -20.2 °F 59% 30.13 in 9.0 mi Calm Calm - N/A   Unknown
9:00 PM -11.2 °F - -22.0 °F 59% 30.10 in 9.0 mi Calm Calm - N/A   Unknown
10:00 PM -10 °F - -21 °F 40% 30.07 in 9 mi Calm Calm - -  
10:00 PM -9.4 °F - -22.0 °F 54% 30.07 in 9.0 mi Calm Calm - N/A   Unknown
11:00 PM -9.4 °F - -20.2 °F 59% 30.03 in 9.0 mi NW 2.3 mph - N/A   Unknown